TimeCST,TemperatureF,Dew PointF,Humidity,Sea Level PressureIn,VisibilityMPH,Wind Direction,Wind SpeedMPH,Gust SpeedMPH,PrecipitationIn,Events,Conditions,WindDirDegrees,DateUTC
12:13 AM,-21.1,-26.7,75,30.44,10.0,Calm,Calm,-,N/A,,Clear,0,2013-12-24 06:13:00
12:33 AM,-22.7,-28.8,73,30.44,10.0,Calm,Calm,-,N/A,,Clear,0,2013-12-24 06:33:00
12:53 AM,-24.5,-30.1,75,30.43,10.0,Calm,Calm,-,N/A,,Clear,0,2013-12-24 06:53:00
1:13 AM,-24.2,-30.1,74,30.43,10.0,Calm,Calm,-,N/A,,Clear,0,2013-12-24 07:13:00
1:33 AM,-23.6,-29.2,75,30.42,10.0,Calm,Calm,-,N/A,,Clear,0,2013-12-24 07:33:00
1:52 AM,-22.2,-28.5,72,30.41,10.0,Calm,Calm,-,N/A,,Clear,0,2013-12-24 07:52:00
2:13 AM,-23.1,-28.7,75,30.40,10.0,Calm,Calm,-,N/A,,Clear,0,2013-12-24 08:13:00
2:33 AM,-23.8,-29.9,73,30.40,10.0,Calm,Calm,-,N/A,,Clear,0,2013-12-24 08:33:00
2:52 AM,-20.4,-26.1,75,30.38,10.0,ESE,5.8,-,N/A,,Clear,110,2013-12-24 08:52:00
3:13 AM,-18.4,-24.2,75,30.37,10.0,Calm,Calm,-,N/A,,Clear,0,2013-12-24 09:13:00
3:33 AM,-21.5,-27.9,72,30.36,10.0,Calm,Calm,-,N/A,,Clear,0,2013-12-24 09:33:00
3:53 AM,-19.1,-24.9,75,30.35,10.0,Calm,Calm,-,N/A,,Clear,0,2013-12-24 09:53:00
4:12 AM,-20.9,-26.9,74,30.35,10.0,Calm,Calm,-,N/A,,Clear,0,2013-12-24 10:12:00
4:33 AM,-17.0,-22.9,74,30.34,10.0,South,5.8,-,N/A,,Clear,170,2013-12-24 10:33:00
4:53 AM,-17.5,-23.8,73,30.35,10.0,South,3.5,-,N/A,,Clear,180,2013-12-24 10:53:00
5:13 AM,-17.1,-23.6,72,30.34,10.0,SSE,4.6,-,N/A,,Clear,150,2013-12-24 11:13:00
5:33 AM,-16.8,-23.3,72,30.34,10.0,South,5.8,-,N/A,,Clear,170,2013-12-24 11:33:00
5:53 AM,-16.4,-23.1,72,30.33,10.0,SSE,6.9,-,N/A,,Clear,150,2013-12-24 11:53:00
6:12 AM,-16.1,-22.7,72,30.31,10.0,SSE,8.1,-,N/A,,Clear,150,2013-12-24 12:12:00
6:33 AM,-15.7,-21.8,74,30.30,10.0,SE,8.1,-,N/A,,Clear,140,2013-12-24 12:33:00
6:52 AM,-15.3,-22.0,72,30.30,10.0,SSE,8.1,-,N/A,,Clear,150,2013-12-24 12:52:00
7:13 AM,-14.8,-21.3,73,30.29,10.0,SE,10.4,-,N/A,,Clear,140,2013-12-24 13:13:00
7:33 AM,-14.3,-20.9,72,30.26,10.0,SE,12.7,-,N/A,,Clear,130,2013-12-24 13:33:00
7:53 AM,-14.3,-21.5,70,30.24,10.0,SE,11.5,-,N/A,,Clear,140,2013-12-24 13:53:00
8:13 AM,-14.3,-21.3,71,30.25,10.0,SE,9.2,-,N/A,,Clear,140,2013-12-24 14:13:00
8:32 AM,-13.5,-21.1,69,30.27,10.0,SSE,6.9,-,N/A,,Clear,150,2013-12-24 14:32:00
8:53 AM,-12.1,-19.8,68,30.26,10.0,South,6.9,-,N/A,,Clear,170,2013-12-24 14:53:00
9:13 AM,-9.2,-19.1,62,30.26,10.0,SSE,6.9,-,N/A,,Scattered Clouds,150,2013-12-24 15:13:00
9:33 AM,-6.7,-18.4,57,30.26,10.0,SE,9.2,-,N/A,,Overcast,140,2013-12-24 15:33:00
9:53 AM,-5.1,-18.4,53,30.26,10.0,SSE,8.1,-,N/A,,Mostly Cloudy,160,2013-12-24 15:53:00
10:13 AM,-3.6,-17.1,53,30.26,10.0,SE,8.1,-,N/A,,Mostly Cloudy,140,2013-12-24 16:13:00
10:33 AM,-2.7,-15.7,54,30.25,10.0,SE,5.8,-,N/A,,Mostly Cloudy,140,2013-12-24 16:33:00
10:52 AM,-0.8,-13.0,56,30.22,10.0,SE,11.5,-,N/A,,Overcast,130,2013-12-24 16:52:00
11:13 AM,0.3,-12.3,55,30.22,10.0,SE,11.5,17.3,N/A,,Overcast,140,2013-12-24 17:13:00
11:33 AM,0.5,-11.4,57,30.21,10.0,SSE,9.2,-,N/A,,Overcast,150,2013-12-24 17:33:00
11:53 AM,2.1,-9.8,58,30.20,10.0,SE,11.5,17.3,N/A,,Overcast,140,2013-12-24 17:53:00
12:13 PM,3.6,-8.5,57,30.18,10.0,SE,12.7,17.3,N/A,,Overcast,140,2013-12-24 18:13:00
12:33 PM,4.1,-7.8,58,30.17,10.0,SE,13.8,19.6,N/A,,Overcast,140,2013-12-24 18:33:00
12:52 PM,4.8,-6.7,59,30.16,10.0,SSE,11.5,19.6,N/A,Snow,Light Snow,150,2013-12-24 18:52:00
1:13 PM,5.0,-6.0,61,30.15,10.0,SSE,13.8,18.4,N/A,Snow,Light Snow,150,2013-12-24 19:13:00
1:33 PM,5.9,-4.9,61,30.13,10.0,SE,16.1,20.7,N/A,,Overcast,140,2013-12-24 19:33:00
1:53 PM,6.8,-3.8,62,30.13,10.0,SSE,11.5,17.3,N/A,,Overcast,150,2013-12-24 19:53:00
2:13 PM,7.7,-2.9,62,30.11,10.0,SSE,13.8,28.8,N/A,,Overcast,150,2013-12-24 20:13:00
2:33 PM,8.4,-1.5,64,30.11,10.0,SSE,13.8,17.3,N/A,,Overcast,150,2013-12-24 20:33:00
2:53 PM,8.6,-0.4,67,30.11,7.0,SE,15.0,-,N/A,Snow,Light Snow,140,2013-12-24 20:53:00
3:13 PM,8.4,1.8,74,30.11,1.2,SSE,13.8,18.4,N/A,Snow,Light Snow,150,2013-12-24 21:13:00
3:33 PM,8.2,3.2,80,30.11,0.8,SSE,15.0,20.7,N/A,Snow,Snow,150,2013-12-24 21:33:00
3:52 PM,8.2,4.1,83,30.12,0.5,SSE,10.4,18.4,N/A,Snow,Light Snow,150,2013-12-24 21:52:00
4:13 PM,8.2,4.8,86,30.13,0.5,SSE,8.1,-,N/A,Snow,Light Snow,150,2013-12-24 22:13:00
4:33 PM,8.4,5.0,86,30.12,0.8,SSE,9.2,-,N/A,Snow,Light Snow,150,2013-12-24 22:33:00
4:53 PM,8.2,4.6,85,30.11,1.5,SE,9.2,-,N/A,Snow,Light Snow,140,2013-12-24 22:53:00
5:12 PM,8.2,4.8,86,30.11,1.2,SSE,8.1,-,N/A,Snow,Light Snow,160,2013-12-24 23:12:00
5:33 PM,8.4,5.2,87,30.11,1.0,SSE,6.9,-,N/A,Snow,Light Snow,150,2013-12-24 23:33:00
5:53 PM,8.8,5.5,87,30.11,1.5,SSE,8.1,-,N/A,Snow,Light Snow,150,2013-12-24 23:53:00
6:13 PM,9.3,6.3,87,30.10,1.2,SSE,12.7,16.1,N/A,Snow,Light Snow,160,2013-12-25 00:13:00
6:33 PM,9.5,5.9,85,30.10,1.8,SSE,11.5,17.3,N/A,Snow,Light Snow,160,2013-12-25 00:33:00
6:50 PM,9.5,5.9,85,30.10,2.5,SSE,10.4,-,N/A,Snow,Light Snow,160,2013-12-25 00:50:00